Location: Breitenfeld
(46.8500°N, 15.6333°E)
Time: 19:18:25
(UTC+00:00)

deb r/b Ablestar - Visible Passes

Search period start: 21 October 2021 00:00
Search period end: 31 October 2021 00:00
Orbit: 743 x 983 km, 67.0° (Epoch: 21 October)

Date Brightness Start Highest point End Pass type
(mag) Time Alt. Az. Time Alt. Az. Time Alt. Az.
21 Oct ? 18:20:08 10° N 18:22:45 13° NNE 18:22:55 13° NNE visible
21 Oct ? 20:04:14 10° NNW 20:05:10 14° NNW 20:05:10 14° NNW visible
22 Oct ? 18:11:27 10° N 18:14:14 14° NNE 18:14:26 14° NNE visible
22 Oct ? 19:55:36 10° NNW 19:56:41 15° NNW 19:56:41 15° NNW visible
23 Oct ? 18:02:46 10° N 18:05:43 14° NNE 18:05:58 14° NNE visible
23 Oct ? 19:46:57 10° NNW 19:48:13 17° NNW 19:48:13 17° NNW visible
24 Oct ? 17:54:05 10° N 17:57:12 15° NNE 17:57:32 15° NNE visible
24 Oct ? 19:38:18 10° NNW 19:39:47 18° NNW 19:39:47 18° NNW visible
25 Oct ? 17:45:24 10° N 17:48:41 15° NNE 17:49:07 15° NNE visible
25 Oct ? 19:29:39 10° NNW 19:31:22 20° NNW 19:31:22 20° NNW visible
26 Oct ? 17:36:43 10° N 17:40:09 16° NNE 17:40:43 16° NE visible
26 Oct ? 19:21:01 10° NNW 19:22:59 22° NNW 19:22:59 22° NNW visible
27 Oct ? 17:28:03 10° NNW 17:31:37 17° NNE 17:32:22 17° NE visible
27 Oct ? 19:12:22 10° NNW 19:14:37 24° NNW 19:14:37 24° NNW visible
28 Oct ? 17:19:23 10° NNW 17:23:05 18° NNE 17:24:03 17° NE visible
28 Oct ? 19:03:44 10° NNW 19:06:18 28° NNW 19:06:18 28° NNW visible
29 Oct ? 17:10:42 10° NNW 17:14:33 19° NNE 17:15:46 17° NE visible
29 Oct ? 18:55:06 10° NNW 18:58:02 32° NNW 18:58:02 32° NNW visible
30 Oct ? 17:02:01 10° NNW 17:06:00 20° NNE 17:07:31 18° NE visible
30 Oct ? 18:46:28 10° NNW 18:49:48 38° NNW 18:49:48 38° NNW visible
